Probability
0 0 0 0 0 0 0 0 0 0 0 0 0 0 0 0 0 0 0 0 1 1 1 1 2 3 3 3 2 2 4 5 5 4 3 3 2 1 0 0 0 2 5
0 0 0 0 0 0 0 0 0 0 0 0 0 0 0 0 0 0 0 0 0 0 0 1 3 3 2 3 3 3 4 4 4 3 3 3 2 1 0 0 0 2 4
0 0 0 0 0 0 0 0 0 0 0 0 0 0 0 0 0 0 0 0 0 0 0 2 3 3 2 2 3 3 2 3 3 3 3 3 2 1 0 0 1 2 2
0 0 0 0 0 0 0 0 0 0 0 0 0 0 0 0 0 0 0 0 0 0 0 1 2 2 1 2 3 2 1 2 2 2 2 2 1 0 0 0 1 2 2
0 0 0 0 0 0 0 0 0 0 0 0 0 0 0 0 0 0 0 0 0 0 0 0 1 1 0 1 2 1 1 2 2 1 2 2 1 0 0 1 1 2 2
0 0 0 0 0 0 0 0 0 0 0 0 0 0 0 0 0 0 0 0 0 0 0 0 0 0 0 0 0 0 1 2 2 1 1 1 0 0 0 1 1 1 2
0 0 0 0 0 0 0 0 0 0 0 0 0 0 0 0 0 0 0 0 0 0 0 0 0 0 0 0 0 0 1 1 1 0 0 0 0 0 0 1 1 1 1
0 0 0 0 0 0 0 0 0 0 0 0 0 0 0 0 0 0 0 0 0 0 0 0 0 0 0 1 1 0 0 0 0 0 0 0 0 1 1 1 1 1 1
0 0 0 0 0 0 0 0 0 0 0 0 0 0 0 0 0 0 0 0 0 0 0 0 0 0 1 2 1 0 0 0 0 0 0 0 0 0 1 1 1 1 1
0 0 0 0 0 0 0 0 0 0 0 0 0 0 0 0 0 0 0 0 0 0 0 0 0 0 1 1 1 0 0 0 0 0 0 0 0 0 0 0 0 0 1
0 0 0 0 0 0 0 0 0 0 0 0 0 0 0 0 0 0 0 0 0 0 0 0 0 0 0 0 0 0 0 0 0 0 0 0 0 0 0 0 0 0 0
0 0 0 0 0 0 0 0 0 0 0 0 0 0 0 0 0 0 0 0 0 0 0 0 0 0 0 0 0 0 0 0 0 0 0 0 0 0 0 0 0 0 0
0 0 0 0 0 0 0 0 0 0 0 0 0 0 0 0 0 0 0 0 0 0 0 0 0 0 0 0 0 0 0 0 0 0 0 0 0 0 0 0 0 0 0
0 0 0 0 0 0 0 0 0 0 0 0 0 0 0 0 0 0 0 0 0 0 0 0 0 0 0 0 0 0 0 0 0 0 0 0 0 0 0 0 0 0 0
0 0 0 0 0 0 0 0 0 0 0 0 0 0 0 0 0 0 0 0 0 0 0 0 0 0 0 0 0 0 0 0 0 0 0 0 0 0 0 0 0 0 0
0 0 0 0 0 0 0 0 0 0 0 0 0 0 0 0 0 0 0 0 0 0 0 0 0 0 0 0 0 0 0 0 0 0 0 0 0 0 0 0 0 0 0
0 0 0 0 0 0 0 0 0 0 0 0 0 0 0 0 0 0 0 0 0 0 0 0 0 0 0 0 0 0 0 0 0 0 0 0 0 0 0 0 0 0 0
0 0 0 0 0 0 0 0 0 0 0 0 0 0 0 0 0 0 0 0 0 0 0 0 0 0 0 0 0 0 0 0 0 0 0 0 0 0 0 0 0 0 0
0 0 0 0 0 0 0 0 0 0 0 0 0 0 0 0 0 0 0 0 0 0 0 0 0 0 0 0 0 0 0 0 0 0 0 0 0 0 0 0 0 0 0
0 0 0 0 0 0 0 0 0 0 0 0 0 0 0 0 0 0 0 0 0 0 0 0 0 0 0 0 0 0 0 0 0 0 0 0 0 0 0 0 0 0 0
0 0 0 0 0 0 0 0 0 0 0 0 0 0 0 0 0 0 0 0 0 0 0 0 0 0 0 0 0 0 0 0 0 0 0 0 0 0 0 0 0 0 0
0 0 0 0 0 0 0 0 0 0 0 0 0 0 0 0 0 0 0 0 0 0 0 0 0 0 0 0 0 0 0 0 0 0 0 0 0 0 0 0 0 0 0
0 0 0 0 0 0 0 0 0 0 0 0 0 0 0 0 0 0 0 0 0 0 0 0 0 0 0 0 0 0 0 0 0 0 0 0 0 0 0 0 0 0 0
0 0 0 0 0 0 0 0 0 0 0 0 0 0 0 0 0 0 0 0 0 0 0 0 0 0 0 0 0 0 0 0 0 0 0 0 0 0 0 0 0 0 0
0 0 0 0 0 0 0 0 0 0 0 0 0 0 0 0 0 0 0 0 0 0 0 0 0 0 0 0 0 0 0 0 0 0 0 0 0 0 0 0 0 0 0
0 0 0 0 0 0 0 0 0 0 0 0 0 0 0 0 0 0 0 0 0 0 0 0 0 0 0 0 0 0 0 0 0 0 0 0 0 0 0 0 0 0 0
Wind_Speed
2 2 2 2 2 2 2 2 2 3 3 3 3 3 3 2 2 2 2 6 7 8 8 9 9 8 8 8 8 9 9 10 10 11 12 12 11 11 11 12 12 13 13
2 2 2 2 2 2 2 2 2 2 2 2 3 3 3 2 2 2 2 4 7 8 9 9 10 10 10 10 10 10 11 11 11 11 11 12 13 13 13 13 14 13 14
2 2 2 2 2 2 2 2 2 2 2 3 3 3 2 2 2 2 2 2 3 6 9 10 11 11 12 12 11 11 11 12 13 13 13 13 13 13 14 15 15 15 15
3 2 2 2 2 2 2 2 2 2 2 3 3 3 3 2 3 2 2 2 2 3 6 10 11 12 13 13 13 13 12 13 14 14 14 14 14 14 15 15 16 16 16
2 2 2 1 2 2 2 2 2 1 2 3 3 2 2 2 3 3 3 3 3 3 3 7 10 12 13 13 13 14 14 14 15 15 15 15 14 15 16 17 17 17 16
2 2 2 1 2 2 2 2 2 2 1 2 3 3 2 2 2 2 3 3 3 3 3 4 4 7 12 13 14 14 15 16 16 16 16 15 15 16 17 17 17 17 17
2 2 1 1 1 1 1 2 1 2 2 2 2 3 3 2 2 2 2 2 3 4 4 4 4 3 5 12 14 15 16 17 16 16 16 16 16 17 17 17 17 17 17
2 2 2 1 1 1 2 2 1 1 2 3 2 2 4 4 3 3 2 2 3 3 4 5 5 5 4 4 8 15 16 17 17 17 17 16 16 17 17 18 17 17 18
1 1 1 1 1 1 0 1 1 1 1 2 1 1 1 3 5 3 3 3 3 4 4 4 5 5 6 4 5 10 15 16 17 17 18 17 17 18 18 18 18 18 18
1 1 1 1 1 1 0 0 0 0 0 1 1 0 1 2 2 5 4 3 4 5 5 6 6 6 6 5 7 12 15 16 17 18 18 18 17 17 17 17 18 18 18
1 1 1 1 1 1 0 0 0 0 0 1 1 1 1 1 2 2 6 6 5 4 4 5 5 5 5 5 4 8 15 16 17 18 19 18 18 18 17 18 18 18 18
0 0 1 1 1 1 1 1 1 1 1 1 1 1 1 1 2 2 5 7 8 5 5 4 4 4 4 4 7 13 16 17 17 18 18 17 17 17 17 18 18 18 18
1 2 1 1 1 1 1 1 1 1 1 2 2 2 2 3 2 2 4 6 7 6 4 3 4 3 4 4 5 14 15 17 17 17 17 16 17 17 17 18 18 18 18
2 2 2 1 1 1 1 1 1 2 1 2 3 3 3 3 3 3 3 4 7 6 4 5 3 3 4 4 7 14 9 16 17 17 17 16 16 17 17 17 17 18 18
2 2 2 1 1 1 1 1 1 2 2 2 3 3 3 3 3 3 3 3 3 7 9 5 3 3 4 4 9 7 7 14 17 16 16 16 15 16 17 17 16 17 17
2 2 1 1 1 1 1 1 2 2 2 3 2 3 3 3 3 3 3 3 3 5 8 6 6 7 7 7 11 8 7 15 15 16 16 16 16 16 16 16 16 16 15
2 2 2 2 1 1 1 2 2 2 3 3 3 3 4 4 4 3 3 3 3 4 8 9 7 7 7 8 8 6 7 6 8 15 16 16 16 16 16 16 14 14 15
2 2 2 1 1 2 2 2 3 3 3 4 4 4 5 4 5 4 3 4 4 4 6 10 9 7 8 7 8 8 8 7 6 12 16 16 16 15 15 14 14 13 14
2 1 2 2 2 2 2 3 3 3 4 4 4 4 5 4 6 4 4 4 4 5 4 7 9 7 7 6 8 8 8 6 7 9 12 13 14 14 13 13 13 13 13
2 2 2 2 2 2 3 3 3 3 3 4 4 4 4 5 6 5 5 5 5 5 5 6 7 7 7 6 6 7 8 6 6 7 8 10 12 13 13 13 13 12 11
1 1 1 1 1 2 2 2 3 3 3 3 3 4 5 7 8 7 5 5 5 5 5 6 7 7 7 7 6 6 8 8 7 4 6 6 6 5 7 10 11 11 10
0 1 1 1 1 2 4 5 4 2 2 3 4 4 5 6 8 10 11 10 8 6 6 6 7 8 9 8 7 7 7 8 7 4 5 6 5 5 5 5 9 10 8
0 0 0 1 2 3 5 5 5 3 2 3 4 4 5 5 7 6 8 9 8 10 10 7 8 9 9 8 8 8 7 7 7 6 5 6 4 5 5 6 11 9 8
0 0 1 1 2 4 6 5 5 2 2 3 4 4 5 5 6 7 5 6 6 6 8 6 6 7 8 8 7 7 7 7 6 4 3 5 5 5 5 5 9 9 9
0 1 1 1 1 3 6 6 5 2 2 4 4 4 4 5 9 10 6 6 7 6 8 10 11 10 13 13 9 5 5 5 6 5 2 3 4 4 4 4 5 9 10
0 1 1 1 1 2 5 6 6 2 3 3 3 4 6 7 9 9 5 5 6 7 7 7 8 8 7 8 10 5 4 4 4 4 3 3 3 4 4 3 3 3 5
Wind_Direction
78 60 47 40 31 29 33 24 19 14 8 0 358 358 349 342 336 331 328 341 339 332 326 328 326 320 314 310 310 312 308 300 296 291 285 279 277 277 278 275 278 275 271
93 78 57 42 32 28 29 30 19 12 356 350 351 345 332 327 328 331 327 332 339 336 329 325 326 322 316 312 308 305 308 301 297 294 290 286 279 276 276 277 274 277 272
95 87 70 47 24 21 28 30 20 19 10 359 348 338 334 329 326 325 322 320 324 336 334 328 325 323 318 313 309 307 308 305 299 293 289 285 283 281 277 275 274 273 273
97 90 76 47 21 28 31 31 20 16 6 354 338 330 330 327 331 323 325 324 321 322 327 331 327 324 322 316 312 311 309 306 303 295 288 284 281 280 280 278 275 273 272
97 95 84 54 38 41 28 17 23 18 354 344 329 328 330 329 323 327 326 324 320 315 314 328 329 325 321 318 313 312 308 305 302 298 291 285 283 282 280 279 277 275 273
102 96 87 59 52 51 24 18 11 7 347 328 325 326 316 313 314 321 313 318 321 316 315 314 319 322 322 320 318 313 311 308 303 301 296 289 286 284 282 281 279 276 274
116 111 99 69 57 59 29 11 6 7 358 345 356 336 319 305 308 303 311 317 319 315 318 315 308 304 309 316 315 311 310 307 304 302 300 295 292 288 286 284 280 279 277
132 127 122 113 88 74 38 24 23 11 358 8 24 3 342 335 336 319 324 315 311 316 319 316 308 304 299 296 306 311 310 307 303 301 300 295 291 290 288 284 282 281 279
142 133 133 132 126 117 89 2 41 64 341 347 33 92 36 301 316 313 306 309 313 314 311 309 303 299 298 295 298 308 309 309 303 300 302 296 292 290 288 287 284 282 281
155 142 146 149 151 141 146 278 41 171 156 316 330 319 202 225 293 311 308 303 302 304 302 304 302 297 294 292 295 304 308 310 309 305 303 300 294 293 292 290 289 287 286
189 170 162 155 160 175 198 259 333 273 189 235 268 277 289 284 236 266 300 312 310 290 288 288 288 288 289 286 288 299 308 308 308 307 305 302 298 293 293 293 292 291 289
243 214 171 159 180 194 210 226 228 238 246 242 249 245 235 250 267 260 283 303 306 301 295 286 285 281 283 288 296 307 310 310 309 307 305 303 302 297 294 292 291 290 289
229 233 211 198 210 225 231 226 227 249 244 247 247 251 249 247 247 255 277 295 299 300 294 285 275 283 296 297 298 307 308 309 309 307 305 303 303 300 295 292 291 290 289
214 214 212 212 227 230 241 239 245 251 254 253 262 257 263 263 249 250 257 288 305 304 297 288 290 280 296 301 302 312 305 306 306 304 305 304 303 303 300 295 293 291 289
207 200 207 215 234 233 231 236 252 257 259 257 257 258 262 267 259 256 256 253 272 302 304 295 302 301 307 308 308 309 302 302 307 306 306 306 305 304 303 301 297 293 289
196 188 191 204 233 259 265 258 266 262 260 268 263 264 269 273 271 262 258 259 248 261 286 292 297 305 310 310 313 313 308 311 310 308 307 307 305 303 303 302 296 292 290
184 184 197 206 227 249 260 259 266 268 267 274 276 273 274 278 278 271 268 267 263 258 278 292 295 303 305 308 311 308 305 304 302 305 306 307 305 303 303 305 300 297 295
189 190 195 204 231 252 256 251 265 266 263 272 277 278 281 289 283 276 272 272 269 261 269 290 300 304 303 305 306 308 309 307 299 302 306 306 306 306 307 309 306 303 301
186 183 190 210 237 252 256 256 258 259 259 263 268 274 281 287 285 282 281 277 276 280 273 283 294 300 301 304 308 306 305 303 304 308 309 310 311 312 311 311 312 312 314
183 191 206 223 241 257 263 263 266 266 266 267 267 269 275 273 274 278 280 275 282 288 287 286 291 298 299 300 302 311 315 316 311 310 310 313 313 315 316 315 317 316 321
198 200 202 255 274 269 271 281 272 268 271 281 282 280 280 287 290 291 292 287 288 289 293 293 294 300 304 311 312 311 310 313 309 300 310 313 313 312 316 317 317 317 320
185 147 181 250 285 291 301 301 301 275 278 285 291 293 291 289 296 302 303 302 298 295 297 296 299 302 303 305 307 307 310 313 312 316 315 309 314 310 311 312 317 319 324
166 193 288 275 276 290 304 309 312 312 295 292 292 299 304 303 308 301 300 305 303 302 300 297 296 298 302 305 306 303 304 303 296 303 308 303 315 310 311 319 327 327 333
171 255 286 287 292 301 310 312 317 317 297 292 288 288 293 301 304 311 310 309 306 305 305 304 293 297 301 302 297 294 295 298 292 295 309 299 312 310 316 324 336 344 346
347 296 276 280 294 303 315 318 324 312 302 296 293 293 297 298 307 318 320 313 314 316 320 319 319 320 322 322 320 317 312 313 311 311 326 304 305 311 314 323 339 349 349
281 311 318 310 298 300 317 326 330 311 305 305 303 299 307 313 316 322 319 314 315 318 321 324 328 332 328 325 329 321 307 305 307 307 332 327 309 324 323 320 332 342 343